Weather History for Ironwood, MI

Change the Weather History Date:

Monday, February 4, 2013

  Actual Average Record
Temperature  
Mean Temperature 2 °F -  
Max Temperature 8 °F 25 °F 53 °F (2005)
Min Temperature -5 °F 9 °F -18 °F (2009)
Degree Days  
Heating Degree Days 64    
Moisture  
Dew Point -8 °F    
Average Humidity 67    
Maximum Humidity 92    
Minimum Humidity 40    
Precipitation  
Precipitation 0.00 in - - ()
Sea Level Pressure  
Sea Level Pressure 29.87 in    
Wind  
Wind Speed 5 mph (WSW)    
Max Wind Speed 10 mph    
Max Gust Speed -    
Visibility 9 miles    
Events      
Averages and records for this station are not official NWS values.
T = Trace of Precipitation, MM = Missing Value Source: NWS Daily Summary

Daily Weather History Graph

Daily Weather History Graph

Search for Another Location

Airport:

Trip Planner

Search our weather history database for the weather conditions in past years. The results will help you decide how hot, cold, wet, or windy it might be!

Date:

Astronomy

Feb. 04, 2013 Rise Set
Actual Time 7:19 AM CST 5:09 PM CST
Civil Twilight 6:48 AM CST 5:41 PM CST
Nautical Twilight 6:12 AM CST 6:17 PM CST
Astronomical Twilight 5:36 AM CST 6:52 PM CST
Moon 2:00 AM CST (2/4) 11:28 AM CST (2/4)
Length of Visible Light 10h 53m
Length of Day
9h 49m
Last Quarter, 37% of the Moon is Illuminated
Feb 4
Last Quarter
Feb 10
New
Feb 17
First Quarter
Feb 25
Full
Mar 4
Last Quarter

Hourly Weather History & Observations

Time (CST) Temp. Windchill Dew Point Humidity Pressure Visibility Wind Dir Wind Speed Gust Speed Precip Events Conditions
12:15 AM 1.4 °F -13.5 °F -5.8 °F 72% 29.92 in 5.0 mi WSW 9.2 mph - N/A   Overcast
12:35 AM 1.4 °F -9.9 °F -5.8 °F 72% 29.92 in 7.0 mi WSW 5.8 mph - N/A   Overcast
12:55 AM 1.4 °F -9.9 °F -9.4 °F 61% 29.92 in 4.0 mi WSW 5.8 mph - N/A   Overcast
1:15 AM 1.4 °F -8.3 °F -7.6 °F 66% 29.92 in 3.0 mi WSW 4.6 mph - N/A   Overcast
1:35 AM -0.4 °F -8.3 °F -7.6 °F 72% 29.92 in 3.0 mi WSW 3.5 mph - N/A   Overcast
1:55 AM -0.4 °F -8.3 °F -7.6 °F 72% 29.92 in 3.0 mi WSW 3.5 mph - N/A   Overcast
2:15 AM -0.4 °F -8.3 °F -5.8 °F 78% 29.92 in 6.0 mi WSW 3.5 mph - N/A   Overcast
2:35 AM -2.2 °F -10.4 °F -7.6 °F 78% 29.92 in 10.0 mi WSW 3.5 mph - N/A   Mostly Cloudy
2:55 AM -4.0 °F -12.4 °F -11.2 °F 71% 29.92 in 10.0 mi WSW 3.5 mph - N/A   Mostly Cloudy
3:15 AM -4.0 °F -12.4 °F -7.6 °F 85% 29.92 in 9.0 mi WSW 3.5 mph - N/A   Overcast
4:55 AM -4.0 °F -16.3 °F -7.6 °F 85% 29.92 in 3.0 mi WSW 5.8 mph - N/A   Overcast
5:15 AM -4.0 °F -14.6 °F -9.4 °F 78% 29.92 in 3.0 mi WSW 4.6 mph - N/A   Overcast
5:35 AM -4.0 °F -14.6 °F -9.4 °F 78% 29.93 in 3.0 mi WSW 4.6 mph - N/A   Overcast
5:55 AM -4.0 °F -16.3 °F -11.2 °F 71% 29.93 in 5.0 mi WSW 5.8 mph - N/A   Overcast
6:15 AM -5.8 °F -16.7 °F -9.4 °F 84% 29.92 in 9.0 mi WSW 4.6 mph - N/A   Overcast
6:35 AM -5.8 °F -19.9 °F -9.4 °F 84% 29.92 in 8.0 mi WSW 6.9 mph - N/A   Mostly Cloudy
6:55 AM -5.8 °F -19.9 °F -11.2 °F 77% 29.92 in 9.0 mi WSW 6.9 mph - N/A   Partly Cloudy
7:15 AM -5.8 °F -16.7 °F -9.4 °F 84% 29.93 in 10.0 mi WSW 4.6 mph - N/A   Mostly Cloudy
7:35 AM -4.0 °F -16.3 °F -9.4 °F 78% 29.93 in 9.0 mi WSW 5.8 mph - N/A   Overcast
7:55 AM -4.0 °F -16.3 °F -7.6 °F 85% 29.93 in 5.0 mi WSW 5.8 mph - N/A   Scattered Clouds
8:15 AM -5.8 °F -18.4 °F -13.0 °F 71% 29.94 in 9.0 mi West 5.8 mph - N/A   Clear
8:35 AM -5.8 °F -18.4 °F -9.4 °F 84% 29.94 in 10.0 mi WSW 5.8 mph - N/A   Clear
8:55 AM -4.0 °F -14.6 °F -11.2 °F 71% 29.93 in 3.0 mi WSW 4.6 mph - N/A   Clear
9:15 AM -4.0 °F -16.3 °F -7.6 °F 85% 29.93 in 10.0 mi WSW 5.8 mph - N/A   Clear
9:35 AM -2.2 °F -15.6 °F -5.8 °F 85% 29.93 in 9.0 mi WSW 6.9 mph - N/A   Clear
9:55 AM 1.4 °F -9.9 °F -0.4 °F 92% 29.94 in 7.0 mi SW 5.8 mph - N/A   Clear
10:15 AM 1.4 °F -11.3 °F -2.2 °F 85% 29.94 in 10.0 mi WSW 6.9 mph - N/A   Clear
10:35 AM 3.2 °F -12.2 °F -2.2 °F 78% 29.94 in 10.0 mi West 10.4 mph - N/A   Clear
10:55 AM 3.2 °F -9.1 °F -5.8 °F 66% 29.95 in 10.0 mi WSW 6.9 mph - N/A   Clear
11:15 AM 3.2 °F -7.8 °F -5.8 °F 66% 29.94 in 10.0 mi WSW 5.8 mph - N/A   Clear
11:35 AM 5.0 °F -5.6 °F -4.0 °F 66% 29.94 in 10.0 mi West 5.8 mph - N/A   Clear
11:55 AM 5.0 °F -6.9 °F -4.0 °F 66% 29.94 in 10.0 mi West 6.9 mph - N/A   Clear
12:15 PM 6.8 °F -3.5 °F -2.2 °F 67% 29.92 in 10.0 mi West 5.8 mph - N/A   Clear
12:35 PM 6.8 °F -3.5 °F -5.8 °F 56% 29.92 in 10.0 mi SSW 5.8 mph - N/A   Clear
12:55 PM 6.8 °F -2.0 °F -5.8 °F 56% 29.91 in 10.0 mi WSW 4.6 mph - N/A   Clear
1:15 PM 6.8 °F -2.0 °F -7.6 °F 52% 29.89 in 10.0 mi West 4.6 mph - N/A   Clear
1:35 PM 6.8 °F -5.9 °F -7.6 °F 52% 29.88 in 10.0 mi West 8.1 mph - N/A   Clear
1:55 PM 8.6 °F 0.1 °F -7.6 °F 48% 29.87 in 10.0 mi West 4.6 mph - N/A   Clear
2:15 PM 8.6 °F 0.1 °F -7.6 °F 48% 29.87 in 10.0 mi West 4.6 mph - N/A   Clear
2:35 PM 8.6 °F 2.0 °F -7.6 °F 48% 29.86 in 10.0 mi West 3.5 mph - N/A   Clear
2:55 PM 8.6 °F -3.7 °F -5.8 °F 52% 29.86 in 10.0 mi West 8.1 mph - N/A   Clear
3:15 PM 8.6 °F -2.6 °F -9.4 °F 44% 29.86 in 10.0 mi West 6.9 mph - N/A   Clear
3:35 PM 8.6 °F -4.7 °F -7.6 °F 48% 29.86 in 10.0 mi West 9.2 mph - N/A   Clear
4:15 PM 8.6 °F -4.7 °F -11.2 °F 40% 29.86 in 10.0 mi West 9.2 mph - N/A   Clear
4:35 PM 8.6 °F -1.3 °F -9.4 °F 44% 29.86 in 10.0 mi WSW 5.8 mph - N/A   Clear
4:55 PM 8.6 °F 2.0 °F -9.4 °F 44% 29.85 in 10.0 mi SW 3.5 mph - N/A   Clear
5:15 PM 6.8 °F - -11.2 °F 44% 29.84 in 10.0 mi Calm Calm - N/A   Mostly Cloudy
5:35 PM 3.2 °F - -7.6 °F 61% 29.83 in 10.0 mi Calm Calm - N/A   Mostly Cloudy
5:55 PM 1.4 °F - -7.6 °F 66% 29.83 in 10.0 mi Calm Calm - N/A   Partly Cloudy
6:15 PM 1.4 °F - -7.6 °F 66% 29.83 in 10.0 mi Calm Calm - N/A   Clear
6:35 PM 1.4 °F - -9.4 °F 61% 29.82 in 10.0 mi Calm Calm - N/A   Clear
6:55 PM -2.2 °F -10.4 °F -11.2 °F 66% 29.81 in 10.0 mi SSE 3.5 mph - N/A   Clear
7:15 PM -4.0 °F - -14.8 °F 60% 29.81 in 10.0 mi Calm Calm - N/A   Clear
7:35 PM -4.0 °F - -9.4 °F 78% 29.80 in 10.0 mi Calm Calm - N/A   Clear
7:55 PM -5.8 °F - -11.2 °F 77% 29.80 in 10.0 mi Calm Calm - N/A   Clear
8:15 PM -2.2 °F -14.2 °F -9.4 °F 71% 29.79 in 10.0 mi SW 5.8 mph - N/A   Clear
8:35 PM -0.4 °F - -5.8 °F 78% 29.79 in 10.0 mi Calm Calm - N/A   Mostly Cloudy
8:55 PM 1.4 °F -8.3 °F -7.6 °F 66% 29.78 in 10.0 mi SSW 4.6 mph - N/A   Overcast
9:15 PM 3.2 °F - -7.6 °F 61% 29.78 in 10.0 mi Calm Calm - N/A   Mostly Cloudy
9:35 PM 3.2 °F -4.2 °F -7.6 °F 61% 29.77 in 10.0 mi West 3.5 mph - N/A   Mostly Cloudy
9:55 PM 1.4 °F - -9.4 °F 61% 29.76 in 10.0 mi Calm Calm - N/A   Scattered Clouds
10:15 PM 6.8 °F -0.1 °F -4.0 °F 61% 29.75 in 10.0 mi SSW 3.5 mph - N/A   Mostly Cloudy
10:35 PM 5.0 °F - -9.4 °F 52% 29.74 in 10.0 mi Calm Calm - N/A   Overcast
10:55 PM 3.2 °F - -7.6 °F 61% 29.74 in 10.0 mi Calm Calm - N/A   Overcast
11:15 PM 6.8 °F - -5.8 °F 56% 29.73 in 10.0 mi Calm Calm - N/A   Overcast
11:35 PM 8.6 °F -1.3 °F -5.8 °F 52% 29.74 in 10.0 mi SW 5.8 mph - N/A   Overcast
11:55 PM 8.6 °F -3.7 °F -2.2 °F 62% 29.74 in 10.0 mi SW 8.1 mph - N/A   Overcast